CW8897 Weather Reports


Display with metric or nautical units.
time (UTC)temp
F
wind
direction
speed
MPH
gust
MPH
rain 1hr
in
rain 24hr
in
rain mn
in
humidity
%
barometer
mb
20260901063013 50 331 0.0 0.0 0.01 0.12 0.01 98 1029.9
20260901061504 50 331 0.0 0.0 0.00 0.11 0.00 97 1029.9
20260901060011 50 331 0.0 0.0 0.00 0.11 0.00 97 1030.0
20260901054514 50 331 0.0 0.0 0.01 0.11 0.11 97 1030.0
20260901053003 50 331 0.0 0.0 0.01 0.11 0.11 97 1030.1
20260901051514 51 331 0.0 0.0 0.01 0.11 0.11 97 1030.5
20260901050009 50 331 0.0 0.0 0.01 0.11 0.11 96 1030.7
20260901044517 51 331 0.0 0.0 0.00 0.10 0.10 96 1030.9
20260901043022 51 331 0.0 0.0 0.01 0.10 0.10 96 1031.0
20260901041504 51 349 0.0 0.0 0.01 0.10 0.10 96 1031.2
20260901040017 51 349 0.0 0.0 0.02 0.10 0.10 94 1031.6
20260901034508 51 196 0.0 0.0 0.03 0.10 0.10 94 1031.7
20260901033018 51 196 0.0 0.0 0.03 0.09 0.09 93 1031.8
20260901031526 51 220 0.0 0.0 0.04 0.09 0.09 90 1031.9
20260901030007 52 266 0.0 2.0 0.04 0.08 0.08 90 1031.8
20260901024508 52 247 0.0 0.0 0.05 0.07 0.07 93 1031.6
20260901023020 52 248 0.0 1.0 0.06 0.06 0.06 91 1031.4
20260901021525 53 231 0.0 3.0 0.05 0.05 0.05 87 1031.3
20260901020027 53 203 1.0 7.0 0.04 0.04 0.04 85 1031.3
20260901014518 53 200 4.0 11.0 0.02 0.02 0.02 82 1031.2
20260901013012 55 219 6.0 22.0 0.00 0.00 0.00 78 1031.0
20260901011525 61 245 0.0 1.0 0.00 0.00 0.00 66 1029.8
20260901010023 62 274 0.0 0.0 0.00 0.00 0.00 59 1029.6
20260901004531 63 274 0.0 1.0 0.00 0.00 0.00 56 1029.8
20260901003010 63 274 0.0 0.0 0.00 0.00 0.00 54 1030.0
20260901001503 63 328 0.0 2.0 0.00 0.00 0.00 54 1029.9
20260901000004 64 282 0.0 2.0 0.00 0.00 0.00 52 1029.8
20260831234505 64 279 0.0 4.0 0.00 0.00 0.00 53 1029.6
20260831233006 64 271 1.0 5.0 0.00 0.00 0.00 51 1029.7
20260831231532 65 248 1.0 9.0 0.00 0.00 0.00 49 1029.9
20260831230034 65 291 3.0 8.0 0.00 0.00 0.00 49 1029.8
20260831224503 65 299 4.0 9.0 0.00 0.00 0.00 46 1029.8
20260831223004 66 242 4.0 11.0 0.00 0.00 0.00 44 1029.5
20260831221533 66 276 4.0 13.0 0.00 0.00 0.00 43 1029.7
20260831220034 69 284 2.0 10.0 0.00 0.00 0.00 49 1029.6
20260831214531 67 266 6.0 12.0 0.00 0.00 0.00 49 1030.0
20260831213024 67 271 3.0 13.0 0.00 0.00 0.00 47 1030.0
20260831211504 66 247 6.0 11.0 0.00 0.00 0.00 51 1030.4
20260831210009 65 249 3.0 11.0 0.00 0.00 0.00 52 1030.9
20260831204520 65 258 7.0 12.0 0.00 0.01 0.00 51 1031.1
20260831203025 64 285 6.0 12.0 0.00 0.05 0.00 52 1031.2
20260831201527 64 263 4.0 13.0 0.00 0.07 0.00 52 1031.4
20260831200011 64 255 6.0 15.0 0.00 0.08 0.00 53 1031.4
20260831194513 63 228 7.0 14.0 0.00 0.08 0.00 53 1031.5
20260831193018 64 221 7.0 13.0 0.00 0.08 0.00 53 1031.5
20260831191523 63 236 5.0 11.0 0.00 0.08 0.00 57 1031.6
20260831190029 63 299 7.0 14.0 0.00 0.08 0.00 58 1031.7
20260831184510 63 239 5.0 9.0 0.00 0.08 0.00 59 1031.7
20260831183035 61 208 4.0 11.0 0.00 0.08 0.00 63 1031.9
20260831181520 60 242 3.0 8.0 0.00 0.08 0.00 65 1032.1
20260831180036 59 201 5.0 13.0 0.00 0.08 0.00 65 1032.2
20260831174506 59 212 7.0 12.0 0.00 0.09 0.00 64 1032.2
20260831173038 59 221 4.0 8.0 0.00 0.09 0.00 65 1032.0
20260831171523 59 248 4.0 9.0 0.00 0.09 0.00 65 1031.8
20260831170029 59 237 6.0 13.0 0.00 0.09 0.00 65 1031.9
20260831164532 59 213 3.0 8.0 0.00 0.09 0.00 66 1031.6
20260831163045 58 224 1.0 8.0 0.00 0.09 0.00 66 1031.6
20260831161535 56 233 4.0 8.0 0.00 0.09 0.00 67 1031.5
20260831160019 56 223 3.0 10.0 0.00 0.09 0.00 68 1031.4
20260831154553 55 153 2.0 12.0 0.00 0.09 0.00 70 1031.4
20260831153035 54 178 4.0 6.0 0.00 0.09 0.00 73 1031.4
20260831151538 52 181 5.0 8.0 0.00 0.09 0.00 80 1031.3
20260831150015 45 147 2.0 3.0 0.00 0.09 0.00 95 1031.4
20260831144502 41 52 0.0 0.0 0.00 0.09 0.00 96 1031.2
20260831143002 40 52 0.0 0.0 0.00 0.09 0.00 96 1031.1
20260831141503 39 52 0.0 0.0 0.00 0.09 0.00 96 1030.8
20260831140005 39 52 0.0 0.0 0.00 0.09 0.00 97 1030.7
20260831134502 37 52 0.0 0.0 0.00 0.10 0.00 97 1030.6
20260831133003 37 52 0.0 0.0 0.00 0.10 0.00 97 1030.6
20260831131503 36 52 0.0 0.0 0.00 0.10 0.00 97 1030.4
20260831130002 36 53 0.0 0.0 0.00 0.10 0.00 97 1030.3
20260831124503 36 53 0.0 0.0 0.00 0.10 0.00 96 1030.1
20260831123002 36 53 0.0 0.0 0.00 0.10 0.00 96 1030.1
20260831121505 36 20 0.0 0.0 0.00 0.10 0.00 96 1030.1
20260831120006 36 20 0.0 0.0 0.00 0.10 0.00 96 1030.0
20260831114506 37 20 0.0 0.0 0.00 0.10 0.00 96 1029.8
20260831113004 37 349 0.0 0.0 0.00 0.10 0.00 96 1029.7
20260831111503 37 98 0.0 1.0 0.00 0.10 0.00 95 1029.6
20260831110004 37 20 0.0 1.0 0.00 0.10 0.00 95 1029.5
20260831104503 38 120 0.0 0.0 0.00 0.10 0.00 95 1029.4
20260831103004 38 119 0.0 0.0 0.00 0.10 0.00 93 1029.6
20260831101504 39 119 0.0 1.0 0.00 0.10 0.00 94 1029.4
20260831100004 40 119 0.0 0.0 0.00 0.10 0.00 93 1029.4
20260831094504 41 119 0.0 1.0 0.00 0.10 0.00 90 1029.2
20260831093004 42 83 0.0 0.0 0.00 0.10 0.00 91 1029.0
20260831091504 43 233 0.0 5.0 0.00 0.10 0.00 91 1028.9
20260831090003 39 79 0.0 2.0 0.00 0.10 0.00 94 1029.4
20260831084504 40 71 0.0 1.0 0.00 0.10 0.00 94 1029.2
20260831083006 40 13 0.0 0.0 0.00 0.10 0.00 93 1029.3
20260831081507 41 59 0.0 0.0 0.00 0.10 0.00 91 1029.4
20260831080006 43 27 0.0 1.0 0.00 0.10 0.00 90 1029.5
20260831074506 46 142 0.0 4.0 0.00 0.12 0.00 85 1029.5
20260831073007 45 141 0.0 1.0 0.00 0.12 0.00 87 1029.1
20260831071502 48 161 0.0 2.0 0.00 0.12 0.00 81 1029.5
20260831070002 50 203 4.0 7.0 0.00 0.12 0.00 79 1029.7
20260831064504 50 154 0.0 9.0 0.00 0.12 0.00 80 1029.6